Location: Crayja
(6.2254°N, 10.6273°W)
Time: 05:01:37
(UTC+00:00)

Fermi - Pass Details

Date: 17 February 2020
Orbit: 524 x 540 km, 25.6° (Epoch: 07 April)

Event Time Altitude Azimuth Distance (km) Brightness Sun altitude
Exits shadow 05:16:10 51° 93° (E) 653 4.4 -25.8°
Drops below altitude 10° 05:19:22 10° 70° (ENE) 1,744 7.1 -25.0°
Sets 05:21:37 0° 67° (ENE) 2,630 8.2 -24.5°
